Time,TemperatureF,DewpointF,PressureIn,WindDirection,WindDirectionDegrees,WindSpeedMPH,WindSpeedGustMPH,Humidity,HourlyPrecipIn,Conditions,Clouds,dailyrainin,SolarRadiationWatts/m^2,SoftwareType,DateUTC
2013-08-29 00:02:00,77.4,74.1,29.92,ENE,66,0.0,3.0,90,0.00,,,0.00,0.0,meteohub,2013-08-29 05:02:00,
2013-08-29 00:07:00,77.4,74.1,29.92,ENE,66,0.0,3.0,90,0.00,,,0.00,0.0,meteohub,2013-08-29 05:07:00,
2013-08-29 00:12:00,77.2,73.9,29.92,ENE,66,0.0,3.0,90,0.00,,,0.00,0.0,meteohub,2013-08-29 05:12:00,
2013-08-29 00:18:00,77.0,74.1,29.92,ENE,66,0.0,0.0,91,0.00,,,0.00,0.0,meteohub,2013-08-29 05:18:00,
2013-08-29 00:22:00,76.6,73.8,29.92,ENE,66,0.0,0.0,91,0.00,,,0.00,0.0,meteohub,2013-08-29 05:22:00,
2013-08-29 00:28:00,76.5,73.9,29.92,ENE,66,0.0,1.0,92,0.00,,,0.00,0.0,meteohub,2013-08-29 05:28:00,
2013-08-29 00:33:00,76.3,73.8,29.92,ENE,66,0.0,1.0,92,0.00,,,0.00,0.0,meteohub,2013-08-29 05:33:00,
2013-08-29 00:38:00,75.9,73.8,29.92,ENE,66,0.0,1.0,93,0.00,,,0.00,0.0,meteohub,2013-08-29 05:38:00,
2013-08-29 00:43:00,75.7,73.6,29.92,ENE,66,0.0,0.0,93,0.00,,,0.00,0.0,meteohub,2013-08-29 05:43:00,
2013-08-29 00:48:00,75.6,73.8,29.92,ENE,65,0.0,0.0,94,0.00,,,0.00,0.0,meteohub,2013-08-29 05:48:00,
2013-08-29 00:53:00,75.6,73.8,29.92,ENE,65,0.0,1.0,94,0.00,,,0.00,0.0,meteohub,2013-08-29 05:53:00,
2013-08-29 00:58:00,75.6,73.8,29.91,ENE,65,0.0,1.0,94,0.00,,,0.00,0.0,meteohub,2013-08-29 05:58:00,
2013-08-29 01:03:00,75.4,73.6,29.92,ENE,65,0.0,1.0,94,0.00,,,0.00,0.0,meteohub,2013-08-29 06:03:00,
2013-08-29 01:08:00,75.2,73.4,29.92,ENE,69,0.0,0.0,94,0.00,,,0.00,0.0,meteohub,2013-08-29 06:08:00,
2013-08-29 01:13:00,75.2,73.4,29.92,ENE,69,0.0,1.0,94,0.00,,,0.00,0.0,meteohub,2013-08-29 06:13:00,
2013-08-29 01:18:00,75.2,73.4,29.92,ENE,68,0.0,1.0,94,0.00,,,0.00,0.0,meteohub,2013-08-29 06:18:00,
2013-08-29 01:23:00,75.2,73.6,29.92,ENE,68,0.0,1.0,95,0.00,,,0.00,0.0,meteohub,2013-08-29 06:23:00,
2013-08-29 01:28:00,75.2,73.6,29.91,ENE,68,0.0,1.0,95,0.00,,,0.00,0.0,meteohub,2013-08-29 06:28:00,
2013-08-29 01:33:00,75.2,73.6,29.91,NE,36,0.0,1.0,95,0.00,,,0.00,0.0,meteohub,2013-08-29 06:33:00,
2013-08-29 01:38:00,75.0,73.4,29.91,NE,36,0.0,3.0,95,0.00,,,0.00,0.0,meteohub,2013-08-29 06:38:00,
2013-08-29 01:43:00,75.2,73.6,29.91,ENE,59,0.0,3.0,95,0.00,,,0.00,0.0,meteohub,2013-08-29 06:43:00,
2013-08-29 01:48:00,75.2,73.6,29.91,ENE,59,0.0,2.0,95,0.00,,,0.00,0.0,meteohub,2013-08-29 06:48:00,
2013-08-29 01:53:00,75.0,73.4,29.91,ENE,59,0.0,2.0,95,0.00,,,0.00,0.0,meteohub,2013-08-29 06:53:00,
2013-08-29 01:58:00,75.0,73.4,29.91,ENE,59,0.0,1.0,95,0.00,,,0.00,0.0,meteohub,2013-08-29 06:58:00,
2013-08-29 02:03:00,74.8,73.2,29.91,ENE,59,0.0,0.0,95,0.00,,,0.00,0.0,meteohub,2013-08-29 07:03:00,
2013-08-29 02:08:00,74.8,73.2,29.91,ENE,59,0.0,0.0,95,0.00,,,0.00,0.0,meteohub,2013-08-29 07:08:00,
2013-08-29 02:13:00,74.7,73.2,29.91,ENE,59,0.0,0.0,95,0.00,,,0.00,0.0,meteohub,2013-08-29 07:13:00,
2013-08-29 02:18:00,74.7,73.4,29.91,ENE,59,0.0,0.0,96,0.00,,,0.00,0.0,meteohub,2013-08-29 07:18:00,
2013-08-29 02:23:00,74.7,73.4,29.90,ENE,59,0.0,1.0,96,0.00,,,0.00,0.0,meteohub,2013-08-29 07:23:00,
2013-08-29 02:28:00,74.7,73.4,29.90,West,273,0.0,1.0,96,0.00,,,0.00,0.0,meteohub,2013-08-29 07:28:00,
2013-08-29 02:33:00,74.8,73.6,29.90,West,273,0.0,1.0,96,0.00,,,0.00,0.0,meteohub,2013-08-29 07:33:00,
2013-08-29 02:38:00,74.8,73.6,29.90,West,273,0.0,3.0,96,0.00,,,0.00,0.0,meteohub,2013-08-29 07:38:00,
2013-08-29 02:43:00,74.8,73.6,29.90,West,273,0.0,3.0,96,0.00,,,0.00,0.0,meteohub,2013-08-29 07:43:00,
2013-08-29 02:49:00,74.7,73.4,29.90,NW,322,0.0,1.0,96,0.00,,,0.00,0.0,meteohub,2013-08-29 07:49:00,
2013-08-29 02:54:00,74.7,73.4,29.91,NW,322,0.0,1.0,96,0.00,,,0.00,0.0,meteohub,2013-08-29 07:54:00,
2013-08-29 02:59:00,74.7,73.4,29.91,NW,322,0.0,1.0,96,0.00,,,0.00,0.0,meteohub,2013-08-29 07:59:00,
2013-08-29 03:04:00,74.8,73.6,29.91,NW,322,0.0,1.0,96,0.00,,,0.00,0.0,meteohub,2013-08-29 08:04:00,
2013-08-29 03:09:00,74.8,73.6,29.91,NW,322,0.0,0.0,96,0.00,,,0.00,0.0,meteohub,2013-08-29 08:09:00,
2013-08-29 19:34:00,83.5,75.0,29.78,North,9,0.0,2.0,76,0.00,,,0.00,14.0,meteohub,2013-08-30 00:34:00,
2013-08-29 19:39:00,83.1,75.2,29.78,North,9,0.0,-999.0,77,-99.99,,,0.00,11.0,meteohub,2013-08-30 00:39:00,
2013-08-29 19:44:00,82.9,75.0,29.78,North,9,0.0,0.0,77,0.00,,,0.00,9.0,meteohub,2013-08-30 00:44:00,
2013-08-29 19:49:00,82.8,74.8,29.78,North,9,0.0,0.0,77,0.00,,,0.00,7.0,meteohub,2013-08-30 00:49:00,
2013-08-29 19:55:00,82.6,75.0,29.78,North,9,0.0,0.0,78,0.00,,,0.00,5.0,meteohub,2013-08-30 00:55:00,
2013-08-29 20:00:00,82.2,74.7,29.78,North,9,0.0,1.0,78,0.00,,,0.00,0.0,meteohub,2013-08-30 01:00:00,
2013-08-29 20:05:00,82.0,74.5,29.78,North,5,0.0,1.0,78,0.00,,,0.00,0.0,meteohub,2013-08-30 01:05:00,
2013-08-29 20:09:00,82.0,74.8,29.78,North,5,0.0,1.0,79,0.00,,,0.00,0.0,meteohub,2013-08-30 01:09:00,
2013-08-29 20:14:00,81.9,74.7,29.78,North,5,0.0,1.0,79,0.00,,,0.00,0.0,meteohub,2013-08-30 01:14:00,
2013-08-29 20:19:00,81.9,74.7,29.78,North,5,0.0,1.0,79,0.00,,,0.00,0.0,meteohub,2013-08-30 01:19:00,
2013-08-29 20:25:00,81.7,74.8,29.78,North,5,0.0,1.0,80,0.00,,,0.00,0.0,meteohub,2013-08-30 01:25:00,
2013-08-29 20:30:00,81.3,74.8,29.78,North,5,0.0,1.0,81,0.00,,,0.00,0.0,meteohub,2013-08-30 01:30:00,
2013-08-29 20:35:00,81.1,74.7,29.78,North,5,0.0,0.0,81,0.00,,,0.00,0.0,meteohub,2013-08-30 01:35:00,
2013-08-29 20:40:00,81.1,75.2,29.78,North,5,0.0,0.0,82,0.00,,,0.00,0.0,meteohub,2013-08-30 01:40:00,
2013-08-29 20:45:00,81.0,75.0,29.79,North,5,0.0,0.0,82,0.00,,,0.00,0.0,meteohub,2013-08-30 01:45:00,
2013-08-29 20:50:00,81.0,75.0,29.78,North,5,0.0,0.0,82,0.00,,,0.00,0.0,meteohub,2013-08-30 01:50:00,
2013-08-29 20:55:00,81.0,75.0,29.78,North,5,0.0,0.0,82,0.00,,,0.00,0.0,meteohub,2013-08-30 01:55:00,
2013-08-29 21:00:00,80.8,75.2,29.78,North,5,0.0,0.0,83,0.00,,,0.00,0.0,meteohub,2013-08-30 02:00:00,
2013-08-29 21:05:00,80.8,75.2,29.78,North,5,0.0,0.0,83,0.00,,,0.00,0.0,meteohub,2013-08-30 02:05:00,
2013-08-29 21:10:00,80.6,75.0,29.79,North,5,0.0,0.0,83,0.00,,,0.00,0.0,meteohub,2013-08-30 02:10:00,
2013-08-29 21:15:00,80.4,75.2,29.79,North,5,0.0,0.0,84,0.00,,,0.00,0.0,meteohub,2013-08-30 02:15:00,
2013-08-29 21:20:00,80.4,75.2,29.79,North,5,0.0,0.0,84,0.00,,,0.00,0.0,meteohub,2013-08-30 02:20:00,
2013-08-29 21:25:00,80.4,75.2,29.79,North,5,0.0,0.0,84,0.00,,,0.00,0.0,meteohub,2013-08-30 02:25:00,
2013-08-29 21:30:00,80.4,75.2,29.79,North,5,0.0,0.0,84,0.00,,,0.00,0.0,meteohub,2013-08-30 02:30:00,
2013-08-29 21:35:00,80.2,75.0,29.80,North,5,0.0,0.0,84,0.00,,,0.00,0.0,meteohub,2013-08-30 02:35:00,
2013-08-29 21:40:00,80.2,75.0,29.80,North,5,0.0,0.0,84,0.00,,,0.00,0.0,meteohub,2013-08-30 02:40:00,
2013-08-29 21:45:00,80.1,75.2,29.80,North,5,0.0,0.0,85,0.00,,,0.00,0.0,meteohub,2013-08-30 02:45:00,
2013-08-29 21:50:00,79.9,75.0,29.80,North,10,0.0,0.0,85,0.00,,,0.00,0.0,meteohub,2013-08-30 02:50:00,
2013-08-29 21:55:00,79.5,75.0,29.80,NW,324,2.0,2.0,86,0.00,,,0.00,0.0,meteohub,2013-08-30 02:55:00,
2013-08-29 22:00:00,79.2,74.7,29.80,WNW,302,0.0,1.0,86,0.00,,,0.00,0.0,meteohub,2013-08-30 03:00:00,
2013-08-29 22:05:00,79.2,75.0,29.80,WNW,302,0.0,3.0,87,0.00,,,0.00,0.0,meteohub,2013-08-30 03:05:00,
2013-08-29 22:10:00,79.0,74.8,29.80,WNW,302,0.0,3.0,87,0.00,,,0.00,0.0,meteohub,2013-08-30 03:10:00,
2013-08-29 22:15:00,78.6,74.5,29.80,WNW,302,0.0,1.0,87,0.00,,,0.00,0.0,meteohub,2013-08-30 03:15:00,
2013-08-29 22:20:00,78.4,74.7,29.80,WNW,302,0.0,0.0,88,0.00,,,0.00,0.0,meteohub,2013-08-30 03:20:00,
2013-08-29 22:25:00,78.4,74.7,29.80,WNW,302,0.0,0.0,88,0.00,,,0.00,0.0,meteohub,2013-08-30 03:25:00,
2013-08-29 22:30:00,78.6,74.8,29.80,WNW,302,0.0,0.0,88,0.00,,,0.00,0.0,meteohub,2013-08-30 03:30:00,
2013-08-29 22:35:00,78.8,75.0,29.81,WNW,302,0.0,0.0,88,0.00,,,0.00,0.0,meteohub,2013-08-30 03:35:00,
2013-08-29 22:40:00,78.6,74.8,29.81,WNW,302,0.0,0.0,88,0.00,,,0.00,0.0,meteohub,2013-08-30 03:40:00,
2013-08-29 22:45:00,78.4,74.8,29.81,WNW,302,0.0,1.0,89,0.00,,,0.00,0.0,meteohub,2013-08-30 03:45:00,
2013-08-29 22:50:00,78.6,74.8,29.81,WNW,302,0.0,1.0,88,0.00,,,0.00,0.0,meteohub,2013-08-30 03:50:00,
2013-08-29 22:55:00,78.6,75.0,29.81,WNW,302,0.0,1.0,89,0.00,,,0.00,0.0,meteohub,2013-08-30 03:55:00,
2013-08-29 23:00:00,79.0,75.2,29.81,WNW,302,0.0,0.0,88,0.00,,,0.00,0.0,meteohub,2013-08-30 04:00:00,
2013-08-29 23:01:00,79.0,75.2,29.81,WNW,302,0.0,0.0,88,0.00,,,0.00,0.0,meteohub,2013-08-30 04:01:00,
2013-08-29 23:02:00,79.0,75.2,29.81,WNW,302,0.0,0.0,88,0.00,,,0.00,0.0,meteohub,2013-08-30 04:02:00,
2013-08-29 23:04:00,79.0,75.2,29.81,WNW,302,0.0,0.0,88,0.00,,,0.00,0.0,meteohub,2013-08-30 04:04:00,
2013-08-29 23:09:00,79.2,75.4,29.82,WNW,302,0.0,0.0,88,0.00,,,0.00,0.0,meteohub,2013-08-30 04:09:00,
2013-08-29 23:14:00,79.2,75.0,29.82,NNW,348,0.0,0.0,87,0.00,,,0.00,0.0,meteohub,2013-08-30 04:14:00,
2013-08-29 23:19:00,79.3,74.8,29.82,NNW,348,0.0,1.0,86,0.00,,,0.00,0.0,meteohub,2013-08-30 04:19:00,
2013-08-29 23:24:00,79.2,74.7,29.82,NNE,15,0.0,1.0,86,0.00,,,0.00,0.0,meteohub,2013-08-30 04:24:00,
2013-08-29 23:29:00,79.2,74.7,29.82,NNW,338,0.0,1.0,86,0.00,,,0.00,0.0,meteohub,2013-08-30 04:29:00,
2013-08-29 23:34:00,79.0,74.5,29.83,NNW,338,0.0,3.0,86,0.00,,,0.00,0.0,meteohub,2013-08-30 04:34:00,
2013-08-29 23:39:00,79.0,74.5,29.83,NNW,338,0.0,3.0,86,0.00,,,0.00,0.0,meteohub,2013-08-30 04:39:00,
2013-08-29 23:44:00,79.0,74.1,29.83,NNW,335,1.0,3.0,85,0.00,,,0.00,0.0,meteohub,2013-08-30 04:44:00,
2013-08-29 23:49:00,79.0,74.1,29.83,North,0,0.0,3.0,85,0.00,,,0.00,0.0,meteohub,2013-08-30 04:49:00,
2013-08-29 23:54:00,79.0,74.1,29.83,North,0,0.0,3.0,85,0.00,,,0.00,0.0,meteohub,2013-08-30 04:54:00,
2013-08-29 23:59:00,79.0,74.1,29.83,NNE,26,0.0,3.0,85,0.00,,,0.00,0.0,meteohub,2013-08-30 04:59:00,